Time,TemperatureF,DewpointF,PressureIn,WindDirection,WindDirectionDegrees,WindSpeedMPH,WindSpeedGustMPH,Humidity,HourlyPrecipIn,Conditions,Clouds,dailyrainin,SolarRadiationWatts/m^2,SoftwareType,DateUTC
2013-02-01 00:03:00,-3.1,-8.5,30.22,West,272,1.1,1.1,77,0.00,CLR,,0.00,0.0,WeatherDisplay:10.37,2013-02-01 06:03:00,
2013-02-01 00:08:00,-3.1,-8.5,30.22,West,262,1.1,1.1,77,0.00,CLR,,0.00,0.0,WeatherDisplay:10.37,2013-02-01 06:08:00,
2013-02-01 00:13:00,-3.2,-8.6,30.22,NW,308,0.0,0.2,77,0.00,CLR,,0.00,0.0,WeatherDisplay:10.37,2013-02-01 06:13:00,
2013-02-01 00:18:00,-3.3,-8.7,30.23,NNW,333,0.0,0.0,77,0.00,BKN,,0.00,0.0,WeatherDisplay:10.37,2013-02-01 06:18:00,
2013-02-01 00:23:00,-3.4,-8.8,30.23,WSW,240,2.3,0.0,77,0.00,BKN,,0.00,0.0,WeatherDisplay:10.37,2013-02-01 06:23:00,
2013-02-01 00:28:00,-3.6,-9.0,30.23,WNW,290,1.1,0.0,77,0.00,BKN,,0.00,0.0,WeatherDisplay:10.37,2013-02-01 06:28:00,
2013-02-01 00:33:00,-3.8,-9.2,30.23,WSW,244,2.3,2.3,77,0.00,SCT,,0.00,0.0,WeatherDisplay:10.37,2013-02-01 06:33:00,
2013-02-01 00:38:00,-4.0,-9.1,30.23,SW,224,1.1,0.0,78,0.00,SCT,,0.00,0.0,WeatherDisplay:10.37,2013-02-01 06:38:00,
2013-02-01 00:43:00,-4.2,-9.3,30.23,West,279,3.5,3.5,78,0.00,SCT,,0.00,0.0,WeatherDisplay:10.37,2013-02-01 06:43:00,
2013-02-01 00:48:00,-4.3,-9.4,30.23,West,263,3.5,3.5,78,0.00,SCT,,0.00,0.0,WeatherDisplay:10.37,2013-02-01 06:48:00,
2013-02-01 00:53:00,-4.4,-9.5,30.24,West,264,1.1,1.1,78,0.00,SCT,,0.00,0.0,WeatherDisplay:10.37,2013-02-01 06:53:00,
2013-02-01 00:58:00,-4.5,-9.6,30.24,West,273,2.0,2.0,78,0.00,SCT,,0.00,0.0,WeatherDisplay:10.37,2013-02-01 06:58:00,
2013-02-01 01:03:00,-4.6,-9.7,30.24,West,272,2.3,2.3,78,0.00,CLR,,0.00,0.0,WeatherDisplay:10.37,2013-02-01 07:03:00,
2013-02-01 01:08:00,-4.8,-9.9,30.24,WSW,240,1.1,0.0,78,0.00,CLR,,0.00,0.0,WeatherDisplay:10.37,2013-02-01 07:08:00,
2013-02-01 01:14:00,-5.0,-10.1,30.24,WSW,254,2.3,2.3,78,0.00,CLR,,0.00,0.0,WeatherDisplay:10.37,2013-02-01 07:14:00,
2013-02-01 01:19:00,-5.2,-10.3,30.24,WSW,244,3.5,3.5,78,0.00,CLR,,0.00,0.0,WeatherDisplay:10.37,2013-02-01 07:19:00,
2013-02-01 01:24:00,-5.3,-10.4,30.25,NW,311,3.5,3.5,78,0.00,CLR,,0.00,0.0,WeatherDisplay:10.37,2013-02-01 07:24:00,
2013-02-01 01:29:00,-5.5,-10.6,30.25,ENE,59,1.1,0.0,78,0.00,CLR,,0.00,0.0,WeatherDisplay:10.37,2013-02-01 07:29:00,
2013-02-01 01:34:00,-5.6,-10.7,30.25,WNW,282,2.3,2.3,78,0.00,CLR,,0.00,0.0,WeatherDisplay:10.37,2013-02-01 07:34:00,
2013-02-01 01:39:00,-5.8,-11.1,30.25,NNE,28,1.1,1.1,77,0.00,CLR,,0.00,0.0,WeatherDisplay:10.37,2013-02-01 07:39:00,
2013-02-01 01:44:00,-5.9,-11.2,30.25,WSW,249,3.5,3.5,77,0.00,CLR,,0.00,0.0,WeatherDisplay:10.37,2013-02-01 07:44:00,
2013-02-01 01:49:00,-6.1,-11.2,30.26,NNW,338,1.1,1.1,78,0.00,CLR,,0.00,0.0,WeatherDisplay:10.37,2013-02-01 07:49:00,
2013-02-01 01:54:00,-6.3,-11.4,30.26,West,263,3.5,3.5,78,0.00,CLR,,0.00,0.0,WeatherDisplay:10.37,2013-02-01 07:54:00,
2013-02-01 01:59:00,-6.5,-11.8,30.26,SW,232,3.0,3.0,77,0.00,CLR,,0.00,0.0,WeatherDisplay:10.37,2013-02-01 07:59:00,
2013-02-01 02:04:00,-6.7,-12.0,30.26,WNW,285,3.5,3.5,77,0.00,CLR,,0.00,0.0,WeatherDisplay:10.37,2013-02-01 08:04:00,
2013-02-01 02:09:00,-6.8,-12.1,30.27,WNW,284,1.1,1.1,77,0.00,CLR,,0.00,0.0,WeatherDisplay:10.37,2013-02-01 08:09:00,
2013-02-01 02:14:00,-7.1,-12.4,30.27,SW,229,4.6,4.6,77,0.00,CLR,,0.00,0.0,WeatherDisplay:10.37,2013-02-01 08:14:00,
2013-02-01 02:19:00,-7.3,-12.6,30.27,SW,220,0.0,0.0,77,0.00,CLR,,0.00,0.0,WeatherDisplay:10.37,2013-02-01 08:19:00,
2013-02-01 02:24:00,-7.5,-12.8,30.27,WNW,297,3.5,3.5,77,0.00,CLR,,0.00,0.0,WeatherDisplay:10.37,2013-02-01 08:24:00,
2013-02-01 02:29:00,-7.7,-13.0,30.28,WNW,284,0.0,0.0,77,0.00,CLR,,0.00,0.0,WeatherDisplay:10.37,2013-02-01 08:29:00,
2013-02-01 02:34:00,-7.9,-13.2,30.28,WSW,256,3.5,3.5,77,0.00,CLR,,0.00,0.0,WeatherDisplay:10.37,2013-02-01 08:34:00,
2013-02-01 02:39:00,-8.1,-13.4,30.28,SW,233,1.1,1.1,77,0.00,CLR,,0.00,0.0,WeatherDisplay:10.37,2013-02-01 08:39:00,
2013-02-01 02:44:00,-8.3,-13.6,30.28,WSW,246,4.6,4.6,77,0.00,CLR,,0.00,0.0,WeatherDisplay:10.37,2013-02-01 08:44:00,
2013-02-01 02:49:00,-8.5,-13.8,30.28,SSW,204,3.5,3.5,77,0.00,CLR,,0.00,0.0,WeatherDisplay:10.37,2013-02-01 08:49:00,
2013-02-01 02:54:00,-8.6,-13.9,30.28,SSW,198,1.1,1.1,77,0.00,CLR,,0.00,0.0,WeatherDisplay:10.37,2013-02-01 08:54:00,
2013-02-01 02:59:00,-8.8,-14.1,30.28,West,279,0.0,0.0,77,0.00,CLR,,0.00,0.0,WeatherDisplay:10.37,2013-02-01 08:59:00,
2013-02-01 03:04:00,-8.9,-14.2,30.28,West,277,1.1,0.0,77,0.00,CLR,,0.00,0.0,WeatherDisplay:10.37,2013-02-01 09:04:00,
2013-02-01 03:09:00,-9.1,-14.4,30.28,SSW,210,0.0,0.0,77,0.00,CLR,,0.00,0.0,WeatherDisplay:10.37,2013-02-01 09:09:00,
2013-02-01 03:14:00,-9.3,-14.6,30.29,West,269,0.0,0.0,77,0.00,CLR,,0.00,0.0,WeatherDisplay:10.37,2013-02-01 09:14:00,
2013-02-01 03:19:00,-9.4,-14.4,30.29,West,271,2.3,0.0,78,0.00,CLR,,0.00,0.0,WeatherDisplay:10.37,2013-02-01 09:19:00,
2013-02-01 03:24:00,-9.6,-14.6,30.28,WNW,284,0.0,0.0,78,0.00,CLR,,0.00,0.0,WeatherDisplay:10.37,2013-02-01 09:24:00,
2013-02-01 03:29:00,-9.8,-14.8,30.29,WNW,302,1.1,0.0,78,0.00,CLR,,0.00,0.0,WeatherDisplay:10.37,2013-02-01 09:29:00,
2013-02-01 03:34:00,-9.9,-14.9,30.29,NNW,327,4.6,4.6,78,0.00,CLR,,0.00,0.0,WeatherDisplay:10.37,2013-02-01 09:34:00,
2013-02-01 03:39:00,-10.0,-15.0,30.29,SW,223,2.3,2.3,78,0.00,CLR,,0.00,0.0,WeatherDisplay:10.37,2013-02-01 09:39:00,
2013-02-01 03:44:00,-10.2,-15.4,30.29,West,275,1.1,1.1,77,0.00,CLR,,0.00,0.0,WeatherDisplay:10.37,2013-02-01 09:44:00,
2013-02-01 03:49:00,-10.3,-15.3,30.30,West,271,2.3,2.3,78,0.00,CLR,,0.00,0.0,WeatherDisplay:10.37,2013-02-01 09:49:00,
2013-02-01 03:54:00,-10.4,-15.6,30.30,WNW,298,0.0,0.0,77,0.00,CLR,,0.00,0.0,WeatherDisplay:10.37,2013-02-01 09:54:00,
2013-02-01 03:59:00,-10.5,-15.7,30.30,WNW,296,1.1,0.0,77,0.00,CLR,,0.00,0.0,WeatherDisplay:10.37,2013-02-01 09:59:00,
2013-02-01 04:04:00,-10.7,-15.9,30.30,WNW,287,0.0,0.0,77,0.00,CLR,,0.00,0.0,WeatherDisplay:10.37,2013-02-01 10:04:00,
2013-02-01 04:09:00,-10.8,-16.0,30.30,West,266,0.0,0.0,77,0.00,CLR,,0.00,0.0,WeatherDisplay:10.37,2013-02-01 10:09:00,
2013-02-01 04:14:00,-10.9,-16.1,30.30,WSW,246,3.5,3.5,77,0.00,CLR,,0.00,0.0,WeatherDisplay:10.37,2013-02-01 10:14:00,
2013-02-01 04:19:00,-11.0,-16.2,30.31,West,273,0.0,0.2,77,0.00,CLR,,0.00,0.0,WeatherDisplay:10.37,2013-02-01 10:19:00,
2013-02-01 04:24:00,-11.1,-16.3,30.31,WSW,247,0.0,0.0,77,0.00,CLR,,0.00,0.0,WeatherDisplay:10.37,2013-02-01 10:24:00,
2013-02-01 04:29:00,-11.2,-16.4,30.31,WNW,296,0.0,0.0,77,0.00,CLR,,0.00,0.0,WeatherDisplay:10.37,2013-02-01 10:29:00,
2013-02-01 04:34:00,-11.3,-16.5,30.31,NW,315,0.0,0.0,77,0.00,CLR,,0.00,0.0,WeatherDisplay:10.37,2013-02-01 10:34:00,
2013-02-01 04:39:00,-11.3,-16.5,30.31,NW,315,0.0,0.0,77,0.00,CLR,,0.00,0.0,WeatherDisplay:10.37,2013-02-01 10:39:00,
2013-02-01 04:44:00,-11.5,-16.7,30.31,WNW,285,1.1,1.1,77,0.00,CLR,,0.00,0.0,WeatherDisplay:10.37,2013-02-01 10:44:00,
2013-02-01 04:49:00,-11.7,-16.9,30.31,WNW,298,0.0,0.0,77,0.00,CLR,,0.00,0.0,WeatherDisplay:10.37,2013-02-01 10:49:00,
2013-02-01 04:54:00,-11.9,-17.1,30.31,NW,311,2.3,2.3,77,0.00,CLR,,0.00,0.0,WeatherDisplay:10.37,2013-02-01 10:54:00,
2013-02-01 04:59:00,-12.0,-17.2,30.31,West,266,1.1,0.0,77,0.00,CLR,,0.00,0.0,WeatherDisplay:10.37,2013-02-01 10:59:00,
2013-02-01 05:04:00,-12.1,-17.3,30.31,West,268,0.0,0.0,77,0.00,CLR,,0.00,0.0,WeatherDisplay:10.37,2013-02-01 11:04:00,
2013-02-01 05:09:00,-12.2,-17.4,30.31,West,267,0.0,0.1,77,0.00,CLR,,0.00,0.0,WeatherDisplay:10.37,2013-02-01 11:09:00,
2013-02-01 05:14:00,-12.3,-17.5,30.31,West,268,0.0,0.0,77,0.00,CLR,,0.00,0.0,WeatherDisplay:10.37,2013-02-01 11:14:00,
2013-02-01 05:19:00,-12.5,-17.7,30.31,West,268,0.0,0.0,77,0.00,CLR,,0.00,0.0,WeatherDisplay:10.37,2013-02-01 11:19:00,
2013-02-01 05:24:00,-12.6,-17.8,30.31,West,268,0.0,0.0,77,0.00,CLR,,0.00,0.0,WeatherDisplay:10.37,2013-02-01 11:24:00,
2013-02-01 05:29:00,-12.8,-18.0,30.31,West,268,0.0,0.0,77,0.00,CLR,,0.00,0.0,WeatherDisplay:10.37,2013-02-01 11:29:00,
2013-02-01 05:34:00,-12.9,-18.1,30.31,West,268,0.0,0.0,77,0.00,CLR,,0.00,0.0,WeatherDisplay:10.37,2013-02-01 11:34:00,
2013-02-01 05:39:00,-13.1,-18.3,30.31,SW,228,1.1,1.1,77,0.00,CLR,,0.00,0.0,WeatherDisplay:10.37,2013-02-01 11:39:00,
2013-02-01 05:44:00,-13.2,-18.4,30.31,SW,228,0.0,0.0,77,0.00,CLR,,0.00,0.0,WeatherDisplay:10.37,2013-02-01 11:44:00,
2013-02-01 05:49:00,-13.5,-18.6,30.31,SW,228,0.0,0.0,77,0.00,CLR,,0.00,0.0,WeatherDisplay:10.37,2013-02-01 11:49:00,
2013-02-01 05:54:00,-13.8,-18.9,30.31,SW,228,0.0,0.0,77,0.00,CLR,,0.00,0.0,WeatherDisplay:10.37,2013-02-01 11:54:00,
2013-02-01 05:59:00,-13.9,-19.0,30.31,SW,228,0.0,0.0,77,0.00,CLR,,0.00,0.0,WeatherDisplay:10.37,2013-02-01 11:59:00,
2013-02-01 06:04:00,-13.9,-19.0,30.32,SW,228,0.0,0.0,77,0.00,CLR,,0.00,0.0,WeatherDisplay:10.37,2013-02-01 12:04:00,
2013-02-01 06:09:00,-13.9,-19.0,30.32,SW,228,0.0,0.0,77,0.00,CLR,,0.00,0.0,WeatherDisplay:10.37,2013-02-01 12:09:00,
2013-02-01 06:14:00,-14.2,-19.3,30.32,SW,233,0.0,0.0,77,0.00,CLR,,0.00,0.0,WeatherDisplay:10.37,2013-02-01 12:14:00,
2013-02-01 06:19:00,-14.4,-19.5,30.32,SW,233,0.0,0.0,77,0.00,CLR,,0.00,0.0,WeatherDisplay:10.37,2013-02-01 12:19:00,
2013-02-01 06:24:00,-14.5,-19.6,30.32,SW,233,0.0,0.0,77,0.00,CLR,,0.00,0.0,WeatherDisplay:10.37,2013-02-01 12:24:00,
2013-02-01 06:29:00,-14.6,-19.7,30.33,SW,233,0.0,0.0,77,0.00,CLR,,0.00,0.0,WeatherDisplay:10.37,2013-02-01 12:29:00,
2013-02-01 06:34:00,-14.8,-20.2,30.33,SW,233,0.0,0.0,76,0.00,CLR,,0.00,0.0,WeatherDisplay:10.37,2013-02-01 12:34:00,
2013-02-01 06:39:00,-15.1,-20.5,30.33,SW,233,0.0,0.0,76,0.00,CLR,,0.00,0.0,WeatherDisplay:10.37,2013-02-01 12:39:00,
2013-02-01 06:44:00,-15.2,-20.3,30.33,SW,233,0.0,0.0,77,0.00,CLR,,0.00,0.0,WeatherDisplay:10.37,2013-02-01 12:44:00,
2013-02-01 06:50:00,-15.3,-20.4,30.33,SW,233,0.0,0.0,77,0.00,CLR,,0.00,0.0,WeatherDisplay:10.37,2013-02-01 12:50:00,
2013-02-01 06:55:00,-15.5,-20.6,30.33,SW,233,0.0,0.0,77,0.00,CLR,,0.00,0.0,WeatherDisplay:10.37,2013-02-01 12:55:00,
2013-02-01 07:00:00,-15.7,-20.8,30.34,SW,233,0.0,0.0,77,0.00,CLR,,0.00,0.0,WeatherDisplay:10.37,2013-02-01 13:00:00,
2013-02-01 07:05:00,-16.0,-21.1,30.34,SW,233,0.0,0.0,77,0.00,CLR,,0.00,0.0,WeatherDisplay:10.37,2013-02-01 13:05:00,
2013-02-01 07:10:00,-16.1,-21.2,30.34,SW,233,0.0,0.0,77,0.00,CLR,,0.00,0.0,WeatherDisplay:10.37,2013-02-01 13:10:00,
2013-02-01 07:15:00,-16.3,-21.4,30.34,SW,233,0.0,0.0,77,0.00,CLR,,0.00,0.0,WeatherDisplay:10.37,2013-02-01 13:15:00,
2013-02-01 07:20:00,-16.3,-21.1,30.34,West,263,2.3,2.3,78,0.00,CLR,,0.00,0.0,WeatherDisplay:10.37,2013-02-01 13:20:00,
2013-02-01 07:25:00,-16.1,-20.9,30.34,West,280,1.1,0.0,78,0.00,CLR,,0.00,0.0,WeatherDisplay:10.37,2013-02-01 13:25:00,
2013-02-01 07:30:00,-16.0,-20.8,30.34,SW,222,0.0,0.0,78,0.00,CLR,,0.00,0.0,WeatherDisplay:10.37,2013-02-01 13:30:00,
2013-02-01 07:35:00,-15.9,-20.7,30.34,NW,323,0.0,0.2,78,0.00,CLR,,0.00,0.0,WeatherDisplay:10.37,2013-02-01 13:35:00,
2013-02-01 07:40:00,-15.7,-20.5,30.34,WSW,255,1.1,0.0,78,0.00,CLR,,0.00,5.0,WeatherDisplay:10.37,2013-02-01 13:40:00,
2013-02-01 07:45:00,-15.4,-20.0,30.34,West,266,1.1,0.0,79,0.00,CLR,,0.00,7.0,WeatherDisplay:10.37,2013-02-01 13:45:00,
2013-02-01 07:50:00,-15.2,-19.8,30.34,NW,319,1.1,0.0,79,0.00,CLR,,0.00,9.0,WeatherDisplay:10.37,2013-02-01 13:50:00,
2013-02-01 07:55:00,-15.1,-20.0,30.34,West,279,0.0,0.0,78,0.00,CLR,,0.00,11.0,WeatherDisplay:10.37,2013-02-01 13:55:00,
2013-02-01 08:00:00,-14.9,-19.8,30.34,SW,215,0.0,0.4,78,0.00,CLR,,0.00,12.0,WeatherDisplay:10.37,2013-02-01 14:00:00,
2013-02-01 08:05:00,-14.8,-19.7,30.34,SW,215,0.0,0.0,78,0.00,CLR,,0.00,14.0,WeatherDisplay:10.37,2013-02-01 14:05:00,
2013-02-01 08:10:00,-14.6,-19.5,30.34,West,266,0.0,0.0,78,0.00,CLR,,0.00,14.0,WeatherDisplay:10.37,2013-02-01 14:10:00,
2013-02-01 08:15:00,-14.4,-19.3,30.35,SW,219,2.3,2.3,78,0.00,CLR,,0.00,33.0,WeatherDisplay:10.37,2013-02-01 14:15:00,
2013-02-01 08:20:00,-14.0,-18.9,30.35,WSW,237,1.1,0.0,78,0.00,CLR,,0.00,46.0,WeatherDisplay:10.37,2013-02-01 14:20:00,
2013-02-01 08:25:00,-13.6,-18.5,30.35,West,264,6.0,6.0,78,0.00,CLR,,0.00,40.0,WeatherDisplay:10.37,2013-02-01 14:25:00,
2013-02-01 08:30:00,-13.5,-18.6,30.35,WSW,252,5.8,5.8,77,0.00,CLR,,0.00,65.0,WeatherDisplay:10.37,2013-02-01 14:30:00,
2013-02-01 08:35:00,-13.4,-18.5,30.35,WSW,244,5.8,5.8,77,0.00,CLR,,0.00,37.0,WeatherDisplay:10.37,2013-02-01 14:35:00,
2013-02-01 08:40:00,-13.1,-18.5,30.35,WSW,241,2.3,2.3,76,0.00,CLR,,0.00,77.0,WeatherDisplay:10.37,2013-02-01 14:40:00,
2013-02-01 08:45:00,-12.8,-18.2,30.35,WSW,257,3.5,3.5,76,0.00,CLR,,0.00,56.0,WeatherDisplay:10.37,2013-02-01 14:45:00,
2013-02-01 08:50:00,-12.7,-18.4,30.35,SSW,213,8.1,8.1,75,0.00,CLR,,0.00,51.0,WeatherDisplay:10.37,2013-02-01 14:50:00,
2013-02-01 08:55:00,-12.7,-18.4,30.35,WSW,246,4.6,4.6,75,0.00,CLR,,0.00,32.0,WeatherDisplay:10.37,2013-02-01 14:55:00,
2013-02-01 09:00:00,-12.7,-18.4,30.35,NW,317,5.8,5.8,75,0.00,CLR,,0.00,123.0,WeatherDisplay:10.37,2013-02-01 15:00:00,
2013-02-01 09:05:00,-12.4,-18.1,30.35,WSW,257,0.0,0.0,75,0.00,CLR,,0.00,156.0,WeatherDisplay:10.37,2013-02-01 15:05:00,
2013-02-01 09:10:00,-12.2,-18.2,30.35,West,265,4.6,4.6,74,0.00,CLR,,0.00,51.0,WeatherDisplay:10.37,2013-02-01 15:10:00,
2013-02-01 09:15:00,-12.0,-18.0,30.34,West,276,1.1,1.1,74,0.00,CLR,,0.00,86.0,WeatherDisplay:10.37,2013-02-01 15:15:00,
2013-02-01 09:20:00,-11.8,-17.8,30.34,WNW,284,1.1,1.1,74,0.00,CLR,,0.00,39.0,WeatherDisplay:10.37,2013-02-01 15:20:00,
2013-02-01 09:25:00,-11.7,-17.7,30.34,WNW,291,1.0,1.0,74,0.00,CLR,,0.00,28.0,WeatherDisplay:10.37,2013-02-01 15:25:00,
2013-02-01 09:30:00,-11.6,-17.8,30.34,WSW,250,2.3,2.3,73,0.00,CLR,,0.00,26.0,WeatherDisplay:10.37,2013-02-01 15:30:00,
2013-02-01 09:35:00,-11.5,-17.7,30.34,NNW,339,1.1,1.1,73,0.00,CLR,,0.00,30.0,WeatherDisplay:10.37,2013-02-01 15:35:00,
2013-02-01 09:40:00,-11.4,-17.6,30.34,WSW,245,2.0,2.0,73,0.00,CLR,,0.00,51.0,WeatherDisplay:10.37,2013-02-01 15:40:00,
2013-02-01 09:45:00,-11.2,-17.7,30.34,WSW,246,3.5,3.5,72,0.00,CLR,,0.00,39.0,WeatherDisplay:10.37,2013-02-01 15:45:00,
2013-02-01 09:50:00,-11.1,-17.6,30.34,West,265,3.5,3.5,72,0.00,CLR,,0.00,95.0,WeatherDisplay:10.37,2013-02-01 15:50:00,
2013-02-01 09:55:00,-11.0,-17.8,30.33,WSW,239,2.3,2.3,71,0.00,CLR,,0.00,40.0,WeatherDisplay:10.37,2013-02-01 15:55:00,
2013-02-01 10:00:00,-10.6,-17.1,30.34,WSW,255,1.1,1.1,72,0.00,CLR,,0.00,83.0,WeatherDisplay:10.37,2013-02-01 16:00:00,
2013-02-01 10:05:00,-10.3,-17.1,30.34,WSW,246,2.3,2.3,71,0.00,CLR,,0.00,37.0,WeatherDisplay:10.37,2013-02-01 16:05:00,
2013-02-01 10:10:00,-10.0,-16.8,30.33,South,191,0.0,0.0,71,0.00,CLR,,0.00,39.0,WeatherDisplay:10.37,2013-02-01 16:10:00,
2013-02-01 10:15:00,-9.6,-16.4,30.33,ENE,65,0.0,0.0,71,0.00,CLR,,0.00,44.0,WeatherDisplay:10.37,2013-02-01 16:15:00,
2013-02-01 10:20:00,-9.3,-16.2,30.33,SW,219,4.6,4.6,71,0.00,CLR,,0.00,44.0,WeatherDisplay:10.37,2013-02-01 16:20:00,
2013-02-01 10:25:00,-9.2,-16.3,30.33,West,259,0.0,0.0,70,0.00,CLR,,0.00,81.0,WeatherDisplay:10.37,2013-02-01 16:25:00,
2013-02-01 10:30:00,-8.6,-15.8,30.33,West,261,2.3,2.3,70,0.00,CLR,,0.00,378.0,WeatherDisplay:10.37,2013-02-01 16:30:00,
2013-02-01 10:35:00,-7.7,-15.2,30.33,West,279,1.1,1.1,69,0.00,CLR,,0.00,378.0,WeatherDisplay:10.37,2013-02-01 16:35:00,
2013-02-01 10:40:00,-6.9,-14.7,30.33,SW,232,1.1,1.1,68,0.00,CLR,,0.00,394.0,WeatherDisplay:10.37,2013-02-01 16:40:00,
2013-02-01 10:45:00,-6.4,-14.8,30.33,WSW,246,3.5,3.5,66,0.00,CLR,,0.00,406.0,WeatherDisplay:10.37,2013-02-01 16:45:00,
2013-02-01 10:50:00,-5.9,-14.9,30.33,WNW,290,4.6,4.6,64,0.00,CLR,,0.00,413.0,WeatherDisplay:10.37,2013-02-01 16:50:00,
2013-02-01 10:55:00,-5.7,-15.1,30.33,WNW,299,2.3,2.3,63,0.00,CLR,,0.00,422.0,WeatherDisplay:10.37,2013-02-01 16:55:00,
2013-02-01 11:00:00,-5.4,-14.5,30.32,SW,225,1.1,0.0,64,0.00,CLR,,0.00,424.0,WeatherDisplay:10.37,2013-02-01 17:00:00,
2013-02-01 11:05:00,-5.1,-13.9,30.32,WNW,298,1.1,1.1,65,0.00,CLR,,0.00,392.0,WeatherDisplay:10.37,2013-02-01 17:05:00,
2013-02-01 11:10:00,-4.8,-14.2,30.32,NW,306,3.5,3.5,63,0.00,CLR,,0.00,445.0,WeatherDisplay:10.37,2013-02-01 17:10:00,
2013-02-01 11:15:00,-4.5,-13.9,30.32,West,272,2.3,0.0,63,0.00,CLR,,0.00,378.0,WeatherDisplay:10.37,2013-02-01 17:15:00,
2013-02-01 11:20:00,-3.8,-13.2,30.31,NNE,19,0.0,0.0,63,0.00,CLR,,0.00,348.0,WeatherDisplay:10.37,2013-02-01 17:20:00,
2013-02-01 11:25:00,-3.6,-13.7,30.31,SW,230,0.0,0.0,61,0.00,CLR,,0.00,454.0,WeatherDisplay:10.37,2013-02-01 17:25:00,
2013-02-01 11:30:00,-3.4,-13.8,30.31,WSW,247,3.5,3.5,60,0.00,CLR,,0.00,415.0,WeatherDisplay:10.37,2013-02-01 17:30:00,
2013-02-01 11:35:00,-3.1,-13.6,30.31,West,275,5.8,5.8,60,0.00,CLR,,0.00,446.0,WeatherDisplay:10.37,2013-02-01 17:35:00,
2013-02-01 11:40:00,-3.4,-14.2,30.31,WNW,298,3.5,3.5,59,0.00,CLR,,0.00,482.0,WeatherDisplay:10.37,2013-02-01 17:40:00,
2013-02-01 11:45:00,-3.1,-12.9,30.31,WSW,246,3.5,3.5,62,0.00,CLR,,0.00,441.0,WeatherDisplay:10.37,2013-02-01 17:45:00,
2013-02-01 11:50:00,-3.3,-14.1,30.31,SW,234,4.6,4.6,59,0.00,CLR,,0.00,450.0,WeatherDisplay:10.37,2013-02-01 17:50:00,
2013-02-01 11:55:00,-3.2,-13.6,30.31,SW,222,2.3,2.3,60,0.00,CLR,,0.00,462.0,WeatherDisplay:10.37,2013-02-01 17:55:00,
2013-02-01 12:00:00,-2.7,-13.2,30.30,NW,307,1.1,1.1,60,0.00,CLR,,0.00,475.0,WeatherDisplay:10.37,2013-02-01 18:00:00,
2013-02-01 12:05:00,-2.2,-13.0,30.30,WSW,246,1.1,0.0,59,0.00,CLR,,0.00,67.0,WeatherDisplay:10.37,2013-02-01 18:05:00,
2013-02-01 12:10:00,-2.2,-13.4,30.30,SW,229,3.5,3.5,58,0.00,CLR,,0.00,56.0,WeatherDisplay:10.37,2013-02-01 18:10:00,
2013-02-01 12:15:00,-2.6,-13.8,30.30,SSW,211,2.3,2.3,58,0.00,CLR,,0.00,46.0,WeatherDisplay:10.37,2013-02-01 18:15:00,
2013-02-01 12:20:00,-2.6,-13.4,30.30,WSW,238,3.5,3.5,59,0.00,CLR,,0.00,42.0,WeatherDisplay:10.37,2013-02-01 18:20:00,
2013-02-01 12:25:00,-2.8,-13.6,30.30,West,268,3.5,3.5,59,0.00,CLR,,0.00,46.0,WeatherDisplay:10.37,2013-02-01 18:25:00,
2013-02-01 12:30:00,-2.8,-13.6,30.30,WNW,297,2.3,2.3,59,0.00,CLR,,0.00,44.0,WeatherDisplay:10.37,2013-02-01 18:30:00,
2013-02-01 12:35:00,-2.9,-13.7,30.29,West,267,3.5,3.5,59,0.00,CLR,,0.00,44.0,WeatherDisplay:10.37,2013-02-01 18:35:00,
2013-02-01 12:40:00,-3.0,-13.8,30.29,West,274,2.0,2.0,59,0.00,CLR,,0.00,46.0,WeatherDisplay:10.37,2013-02-01 18:40:00,
2013-02-01 12:45:00,-2.6,-13.4,30.29,WSW,242,3.5,3.5,59,0.00,CLR,,0.00,93.0,WeatherDisplay:10.37,2013-02-01 18:45:00,
2013-02-01 12:50:00,-2.4,-12.9,30.29,WSW,252,3.5,3.5,60,0.00,CLR,,0.00,125.0,WeatherDisplay:10.37,2013-02-01 18:50:00,
2013-02-01 12:55:00,-2.2,-13.4,30.29,WSW,241,2.3,2.3,58,0.00,CLR,,0.00,98.0,WeatherDisplay:10.37,2013-02-01 18:55:00,
2013-02-01 13:00:00,-1.7,-12.6,30.29,SSW,194,1.1,0.0,59,0.00,CLR,,0.00,227.0,WeatherDisplay:10.37,2013-02-01 19:00:00,
2013-02-01 13:05:00,-1.2,-12.4,30.28,North,9,3.5,3.5,58,0.00,CLR,,0.00,118.0,WeatherDisplay:10.37,2013-02-01 19:05:00,
2013-02-01 13:10:00,-0.8,-12.4,30.28,West,263,3.5,3.5,57,0.00,CLR,,0.00,111.0,WeatherDisplay:10.37,2013-02-01 19:10:00,
2013-02-01 13:15:00,-0.6,-11.9,30.28,NNW,334,2.3,2.3,58,0.00,CLR,,0.00,60.0,WeatherDisplay:10.37,2013-02-01 19:15:00,
2013-02-01 13:20:00,-0.4,-12.0,30.28,SW,225,1.1,0.0,57,0.00,CLR,,0.00,128.0,WeatherDisplay:10.37,2013-02-01 19:20:00,
2013-02-01 13:25:00,-0.3,-11.9,30.28,SSW,208,3.5,3.5,57,0.00,CLR,,0.00,130.0,WeatherDisplay:10.37,2013-02-01 19:25:00,
2013-02-01 13:30:00,-0.2,-11.8,30.27,WSW,248,3.0,3.0,57,0.00,CLR,,0.00,178.0,WeatherDisplay:10.37,2013-02-01 19:30:00,
2013-02-01 13:35:00,0.0,-12.0,30.27,South,169,2.3,2.3,56,0.00,CLR,,0.00,65.0,WeatherDisplay:10.37,2013-02-01 19:35:00,
2013-02-01 13:40:00,0.2,-12.2,30.27,WNW,283,3.5,3.5,55,0.00,CLR,,0.00,76.0,WeatherDisplay:10.37,2013-02-01 19:40:00,
2013-02-01 13:45:00,0.4,-12.0,30.27,SSW,199,3.5,3.5,55,0.00,CLR,,0.00,118.0,WeatherDisplay:10.37,2013-02-01 19:45:00,
2013-02-01 13:50:00,0.5,-11.9,30.27,SW,217,3.5,3.5,55,0.00,CLR,,0.00,253.0,WeatherDisplay:10.37,2013-02-01 19:50:00,
2013-02-01 13:55:00,0.6,-11.8,30.26,SE,133,0.0,0.0,55,0.00,CLR,,0.00,54.0,WeatherDisplay:10.37,2013-02-01 19:55:00,
2013-02-01 14:00:00,0.6,-12.2,30.26,SW,228,3.5,3.5,54,0.00,CLR,,0.00,250.0,WeatherDisplay:10.37,2013-02-01 20:00:00,
2013-02-01 14:05:00,0.8,-12.4,30.26,SE,145,2.3,2.3,53,0.00,CLR,,0.00,97.0,WeatherDisplay:10.37,2013-02-01 20:05:00,
2013-02-01 14:10:00,0.8,-12.0,30.26,WSW,254,4.6,4.6,54,0.00,CLR,,0.00,125.0,WeatherDisplay:10.37,2013-02-01 20:10:00,
2013-02-01 14:15:00,0.6,-12.5,30.25,WNW,295,5.8,5.8,53,0.00,CLR,,0.00,79.0,WeatherDisplay:10.37,2013-02-01 20:15:00,
2013-02-01 14:20:00,0.4,-12.0,30.26,SW,234,3.5,3.5,55,0.00,CLR,,0.00,100.0,WeatherDisplay:10.37,2013-02-01 20:20:00,
2013-02-01 14:25:00,0.4,-11.6,30.26,West,273,1.1,1.1,56,0.00,CLR,,0.00,125.0,WeatherDisplay:10.37,2013-02-01 20:25:00,
2013-02-01 14:30:00,0.5,-11.9,30.26,SSW,207,3.5,3.5,55,0.00,CLR,,0.00,137.0,WeatherDisplay:10.37,2013-02-01 20:30:00,
2013-02-01 14:35:00,0.6,-11.4,30.26,WSW,245,0.0,0.1,56,0.00,CLR,,0.00,155.0,WeatherDisplay:10.37,2013-02-01 20:35:00,
2013-02-01 14:40:00,0.8,-11.6,30.26,SE,136,3.5,3.5,55,0.00,CLR,,0.00,162.0,WeatherDisplay:10.37,2013-02-01 20:40:00,
2013-02-01 14:45:00,0.9,-11.5,30.26,South,183,2.3,2.3,55,0.00,CLR,,0.00,156.0,WeatherDisplay:10.37,2013-02-01 20:45:00,
2013-02-01 14:50:00,1.3,-10.4,30.25,SE,141,1.1,1.1,57,0.00,CLR,,0.00,146.0,WeatherDisplay:10.37,2013-02-01 20:50:00,
2013-02-01 14:55:00,1.4,-11.4,30.26,SW,224,3.5,3.5,54,0.00,CLR,,0.00,135.0,WeatherDisplay:10.37,2013-02-01 20:55:00,
2013-02-01 15:00:00,1.3,-11.9,30.25,SW,219,3.5,3.5,53,0.00,CLR,,0.00,135.0,WeatherDisplay:10.37,2013-02-01 21:00:00,
2013-02-01 15:05:00,1.2,-11.6,30.25,West,259,3.5,3.5,54,0.00,SCT,,0.00,111.0,WeatherDisplay:10.37,2013-02-01 21:05:00,
2013-02-01 15:10:00,1.3,-11.1,30.25,SSE,167,1.1,0.0,55,0.00,SCT,,0.00,120.0,WeatherDisplay:10.37,2013-02-01 21:10:00,
2013-02-01 15:15:00,1.5,-11.0,30.25,SSW,193,0.0,0.0,55,0.00,SCT,,0.00,116.0,WeatherDisplay:10.37,2013-02-01 21:15:00,
2013-02-01 15:20:00,1.8,-10.7,30.25,SSW,198,0.0,0.1,55,0.00,SCT,,0.00,88.0,WeatherDisplay:10.37,2013-02-01 21:20:00,
2013-02-01 15:25:00,1.9,-11.0,30.25,NW,309,3.5,3.5,54,0.00,SCT,,0.00,74.0,WeatherDisplay:10.37,2013-02-01 21:25:00,
2013-02-01 15:30:00,1.8,-11.0,30.25,SSE,161,0.0,0.1,54,0.00,SCT,,0.00,81.0,WeatherDisplay:10.37,2013-02-01 21:30:00,
2013-02-01 15:35:00,1.7,-11.5,30.25,SSW,209,2.3,2.3,53,0.00,SCT,,0.00,72.0,WeatherDisplay:10.37,2013-02-01 21:35:00,
2013-02-01 15:41:00,1.6,-11.2,30.24,SSW,211,3.5,3.5,54,0.00,SCT,,0.00,56.0,WeatherDisplay:10.37,2013-02-01 21:41:00,
2013-02-01 15:46:00,1.5,-11.0,30.25,SW,219,0.0,0.0,55,0.00,SCT,,0.00,54.0,WeatherDisplay:10.37,2013-02-01 21:46:00,
2013-02-01 15:51:00,1.4,-10.7,30.24,SE,144,1.1,1.1,56,0.00,SCT,,0.00,42.0,WeatherDisplay:10.37,2013-02-01 21:51:00,
2013-02-01 15:56:00,1.4,-10.7,30.24,West,265,2.3,2.3,56,0.00,SCT,,0.00,37.0,WeatherDisplay:10.37,2013-02-01 21:56:00,
2013-02-01 16:01:00,1.0,-11.4,30.25,SSE,159,3.5,3.5,55,0.00,SCT,,0.00,39.0,WeatherDisplay:10.37,2013-02-01 22:01:00,
2013-02-01 16:06:00,0.9,-11.2,30.25,SW,217,3.5,3.5,56,0.00,BKN,,0.00,44.0,WeatherDisplay:10.37,2013-02-01 22:06:00,
2013-02-01 16:11:00,0.8,-11.3,30.24,NW,309,2.3,2.3,56,0.00,BKN,,0.00,46.0,WeatherDisplay:10.37,2013-02-01 22:11:00,
2013-02-01 16:16:00,0.7,-11.0,30.25,SW,221,1.0,1.0,57,0.00,BKN,,0.00,46.0,WeatherDisplay:10.37,2013-02-01 22:16:00,
2013-02-01 16:21:00,0.7,-11.0,30.25,SSW,204,0.0,0.3,57,0.00,BKN,,0.00,37.0,WeatherDisplay:10.37,2013-02-01 22:21:00,
2013-02-01 16:26:00,0.6,-11.1,30.25,SSW,200,3.5,3.5,57,0.00,BKN,,0.00,30.0,WeatherDisplay:10.37,2013-02-01 22:26:00,
2013-02-01 16:31:00,0.6,-11.1,30.25,WSW,247,2.3,2.3,57,0.00,BKN,,0.00,21.0,WeatherDisplay:10.37,2013-02-01 22:31:00,
2013-02-01 16:36:00,0.3,-11.7,30.25,West,262,3.5,3.5,56,0.00,BKN,,0.00,16.0,WeatherDisplay:10.37,2013-02-01 22:36:00,
2013-02-01 16:41:00,0.1,-11.2,30.24,WSW,245,2.3,2.3,58,0.00,BKN,,0.00,12.0,WeatherDisplay:10.37,2013-02-01 22:41:00,
2013-02-01 16:46:00,0.0,-11.0,30.24,SSW,192,1.1,1.1,59,0.00,BKN,,0.00,9.0,WeatherDisplay:10.37,2013-02-01 22:46:00,
2013-02-01 16:51:00,0.0,-11.0,30.24,SSW,203,2.3,2.3,59,0.00,BKN,,0.00,5.0,WeatherDisplay:10.37,2013-02-01 22:51:00,
2013-02-01 16:56:00,-0.1,-11.0,30.24,West,278,3.5,3.5,59,0.00,BKN,,0.00,0.0,WeatherDisplay:10.37,2013-02-01 22:56:00,
2013-02-01 17:01:00,-0.3,-11.2,30.24,West,263,1.1,1.1,59,0.00,OVC,,0.00,0.0,WeatherDisplay:10.37,2013-02-01 23:01:00,
2013-02-01 17:06:00,-0.5,-11.4,30.24,West,270,2.3,2.3,59,0.00,OVC,,0.00,0.0,WeatherDisplay:10.37,2013-02-01 23:06:00,
2013-02-01 17:11:00,-0.7,-11.3,30.24,WNW,284,2.3,2.3,60,0.00,OVC,,0.00,0.0,WeatherDisplay:10.37,2013-02-01 23:11:00,
2013-02-01 17:16:00,-0.8,-11.4,30.24,West,274,0.0,0.0,60,0.00,OVC,,0.00,0.0,WeatherDisplay:10.37,2013-02-01 23:16:00,
2013-02-01 17:21:00,-0.8,-11.0,30.24,West,261,3.5,3.5,61,0.00,OVC,,0.00,0.0,WeatherDisplay:10.37,2013-02-01 23:21:00,
2013-02-01 17:26:00,-0.9,-11.5,30.25,WSW,254,3.5,3.5,60,0.00,OVC,,0.00,0.0,WeatherDisplay:10.37,2013-02-01 23:26:00,
2013-02-01 17:31:00,-0.9,-10.8,30.25,WNW,298,3.0,3.0,62,0.00,OVC,,0.00,0.0,WeatherDisplay:10.37,2013-02-01 23:31:00,
2013-02-01 17:36:00,-0.8,-10.7,30.24,West,276,0.0,0.0,62,0.00,OVC,,0.00,0.0,WeatherDisplay:10.37,2013-02-01 23:36:00,
2013-02-01 17:41:00,-0.8,-11.0,30.24,SW,221,2.3,2.3,61,0.00,OVC,,0.00,0.0,WeatherDisplay:10.37,2013-02-01 23:41:00,
2013-02-01 17:46:00,-0.8,-11.0,30.24,SW,221,0.0,0.0,61,0.00,OVC,,0.00,0.0,WeatherDisplay:10.37,2013-02-01 23:46:00,
2013-02-01 17:51:00,-0.8,-11.0,30.24,WSW,258,0.0,0.0,61,0.00,OVC,,0.00,0.0,WeatherDisplay:10.37,2013-02-01 23:51:00,
2013-02-01 17:56:00,-0.8,-11.0,30.24,WSW,257,0.0,0.0,61,0.00,OVC,,0.00,0.0,WeatherDisplay:10.37,2013-02-01 23:56:00,
2013-02-01 18:01:00,-0.9,-11.5,30.24,South,180,0.0,0.0,60,0.00,OVC,,0.00,0.0,WeatherDisplay:10.37,2013-02-02 00:01:00,
2013-02-01 18:06:00,-1.1,-11.3,30.24,WSW,242,1.1,1.1,61,0.00,OVC,,0.00,0.0,WeatherDisplay:10.37,2013-02-02 00:06:00,
2013-02-01 18:11:00,-1.2,-11.4,30.24,SW,221,2.3,2.3,61,0.00,OVC,,0.00,0.0,WeatherDisplay:10.37,2013-02-02 00:11:00,
2013-02-01 18:16:00,-1.4,-11.6,30.25,SE,135,2.3,2.3,61,0.00,OVC,,0.00,0.0,WeatherDisplay:10.37,2013-02-02 00:16:00,
2013-02-01 18:21:00,-1.4,-11.3,30.25,SE,142,0.0,0.0,62,0.00,OVC,,0.00,0.0,WeatherDisplay:10.37,2013-02-02 00:21:00,
2013-02-01 18:26:00,-1.5,-11.4,30.25,WSW,241,2.3,2.3,62,0.00,OVC,,0.00,0.0,WeatherDisplay:10.37,2013-02-02 00:26:00,
2013-02-01 18:31:00,-1.6,-11.5,30.25,SW,214,1.1,1.1,62,0.00,OVC,,0.00,0.0,WeatherDisplay:10.37,2013-02-02 00:31:00,
2013-02-01 18:36:00,-1.6,-11.5,30.25,SW,214,0.0,0.0,62,0.00,OVC,,0.00,0.0,WeatherDisplay:10.37,2013-02-02 00:36:00,
2013-02-01 18:41:00,-1.6,-11.1,30.25,SW,221,3.5,3.5,63,0.00,OVC,,0.00,0.0,WeatherDisplay:10.37,2013-02-02 00:41:00,
2013-02-01 18:46:00,-1.6,-11.1,30.25,WSW,240,0.0,0.0,63,0.00,OVC,,0.00,0.0,WeatherDisplay:10.37,2013-02-02 00:46:00,
2013-02-01 18:51:00,-1.5,-11.1,30.25,WSW,240,0.0,0.0,63,0.00,OVC,,0.00,0.0,WeatherDisplay:10.37,2013-02-02 00:51:00,
2013-02-01 18:56:00,-1.5,-11.1,30.25,WSW,240,0.0,0.0,63,0.00,OVC,,0.00,0.0,WeatherDisplay:10.37,2013-02-02 00:56:00,
2013-02-01 19:01:00,-1.4,-11.0,30.25,WSW,238,0.0,0.0,63,0.00,OVC,,0.00,0.0,WeatherDisplay:10.37,2013-02-02 01:01:00,
2013-02-01 19:06:00,-1.4,-11.0,30.25,South,184,1.0,1.0,63,0.00,OVC,,0.00,0.0,WeatherDisplay:10.37,2013-02-02 01:06:00,
2013-02-01 19:11:00,-1.3,-11.2,30.25,SSW,209,0.0,0.0,62,0.00,OVC,,0.00,0.0,WeatherDisplay:10.37,2013-02-02 01:11:00,
2013-02-01 19:16:00,-1.2,-10.8,30.25,SSW,209,1.1,0.0,63,0.00,OVC,,0.00,0.0,WeatherDisplay:10.37,2013-02-02 01:16:00,
2013-02-01 19:21:00,-1.2,-11.1,30.25,SSW,209,2.0,2.0,62,0.00,OVC,,0.00,0.0,WeatherDisplay:10.37,2013-02-02 01:21:00,
2013-02-01 19:26:00,-1.3,-10.9,30.25,West,273,3.5,3.5,63,0.00,OVC,,0.00,0.0,WeatherDisplay:10.37,2013-02-02 01:26:00,
2013-02-01 19:31:00,-1.2,-10.4,30.25,WSW,258,1.0,1.0,64,0.00,OVC,,0.00,0.0,WeatherDisplay:10.37,2013-02-02 01:31:00,
2013-02-01 19:36:00,-1.1,-10.7,30.24,SW,236,0.0,0.0,63,0.00,OVC,,0.00,0.0,WeatherDisplay:10.37,2013-02-02 01:36:00,
2013-02-01 19:41:00,-0.9,-10.2,30.24,SW,236,0.0,0.0,64,0.00,OVC,,0.00,0.0,WeatherDisplay:10.37,2013-02-02 01:41:00,
2013-02-01 19:46:00,-0.9,-10.2,30.24,SSW,200,0.0,0.0,64,0.00,OVC,,0.00,0.0,WeatherDisplay:10.37,2013-02-02 01:46:00,
2013-02-01 19:51:00,-0.8,-10.4,30.24,SSW,201,0.0,0.0,63,0.00,OVC,,0.00,0.0,WeatherDisplay:10.37,2013-02-02 01:51:00,
2013-02-01 19:56:00,-0.8,-10.1,30.24,SSW,201,0.0,0.0,64,0.00,OVC,,0.00,0.0,WeatherDisplay:10.37,2013-02-02 01:56:00,
2013-02-01 20:01:00,-0.7,-9.7,30.24,SSW,201,0.0,0.0,65,0.00,OVC,,0.00,0.0,WeatherDisplay:10.37,2013-02-02 02:01:00,
2013-02-01 20:06:00,-0.6,-9.9,30.23,SSW,200,0.0,0.0,64,0.00,OVC,,0.00,0.0,WeatherDisplay:10.37,2013-02-02 02:06:00,
2013-02-01 20:11:00,-0.5,-9.8,30.24,SSW,200,0.0,0.0,64,0.00,OVC,,0.00,0.0,WeatherDisplay:10.37,2013-02-02 02:11:00,
2013-02-01 20:16:00,-0.4,-9.4,30.24,SSW,200,0.0,0.0,65,0.00,OVC,,0.00,0.0,WeatherDisplay:10.37,2013-02-02 02:16:00,
2013-02-01 20:21:00,-0.4,-9.7,30.24,SSW,201,0.0,0.0,64,0.00,OVC,,0.00,0.0,WeatherDisplay:10.37,2013-02-02 02:21:00,
2013-02-01 20:26:00,-0.7,-9.7,30.24,SW,214,0.0,0.0,65,0.00,OVC,,0.00,0.0,WeatherDisplay:10.37,2013-02-02 02:26:00,
2013-02-01 20:31:00,-0.7,-9.3,30.24,SW,214,0.0,0.0,66,0.00,OVC,,0.00,0.0,WeatherDisplay:10.37,2013-02-02 02:31:00,
2013-02-01 20:36:00,-0.7,-9.3,30.24,SW,214,0.0,0.0,66,0.00,OVC,,0.00,0.0,WeatherDisplay:10.37,2013-02-02 02:36:00,
2013-02-01 20:41:00,-0.5,-8.8,30.24,SW,218,0.0,0.0,67,0.00,OVC,,0.00,0.0,WeatherDisplay:10.37,2013-02-02 02:41:00,
2013-02-01 20:47:00,-0.5,-8.8,30.24,SSW,209,0.0,0.0,67,0.00,OVC,,0.00,0.0,WeatherDisplay:10.37,2013-02-02 02:47:00,
2013-02-01 20:52:00,-0.4,-8.8,30.24,SSW,209,0.0,0.0,67,0.00,OVC,,0.00,0.0,WeatherDisplay:10.37,2013-02-02 02:52:00,
2013-02-01 20:57:00,-0.4,-8.8,30.24,SSW,209,0.0,0.0,67,0.00,OVC,,0.00,0.0,WeatherDisplay:10.37,2013-02-02 02:57:00,
2013-02-01 21:02:00,-0.3,-8.7,30.24,SW,218,1.1,0.0,67,0.00,OVC,,0.00,0.0,WeatherDisplay:10.37,2013-02-02 03:02:00,
2013-02-01 21:07:00,-0.4,-8.8,30.24,SW,223,2.3,0.0,67,0.00,OVC,,0.00,0.0,WeatherDisplay:10.37,2013-02-02 03:07:00,
2013-02-01 21:12:00,-0.4,-8.4,30.24,SW,223,0.0,0.0,68,0.00,OVC,,0.00,0.0,WeatherDisplay:10.37,2013-02-02 03:12:00,
2013-02-01 21:17:00,-0.4,-8.4,30.24,SW,223,0.0,0.0,68,0.00,OVC,,0.00,0.0,WeatherDisplay:10.37,2013-02-02 03:17:00,
2013-02-01 21:22:00,-0.4,-8.4,30.24,SW,223,0.0,0.0,68,0.00,OVC,,0.00,0.0,WeatherDisplay:10.37,2013-02-02 03:22:00,
2013-02-01 21:27:00,-0.4,-8.2,30.24,SW,223,0.0,0.0,69,0.00,OVC,,0.00,0.0,WeatherDisplay:10.37,2013-02-02 03:27:00,
2013-02-01 21:32:00,-0.3,-7.8,30.24,SW,223,0.0,0.0,70,0.00,OVC,,0.00,0.0,WeatherDisplay:10.37,2013-02-02 03:32:00,
2013-02-01 21:37:00,-0.3,-7.8,30.24,SW,223,0.0,0.0,70,0.00,OVC,,0.00,0.0,WeatherDisplay:10.37,2013-02-02 03:37:00,
2013-02-01 21:42:00,-0.4,-7.6,30.24,SW,223,2.3,0.0,71,0.00,OVC,,0.00,0.0,WeatherDisplay:10.37,2013-02-02 03:42:00,
2013-02-01 21:47:00,-0.5,-7.7,30.24,SW,223,0.0,0.0,71,0.00,OVC,,0.00,0.0,WeatherDisplay:10.37,2013-02-02 03:47:00,
2013-02-01 21:52:00,-0.5,-7.4,30.24,SW,223,0.0,0.0,72,0.00,OVC,,0.00,0.0,WeatherDisplay:10.37,2013-02-02 03:52:00,
2013-02-01 21:57:00,-0.3,-6.9,30.24,SW,223,0.0,0.0,73,0.00,OVC,,0.00,0.0,WeatherDisplay:10.37,2013-02-02 03:57:00,
2013-02-01 22:02:00,-0.4,-7.0,30.23,SW,223,0.0,0.0,73,0.00,OVC,,0.00,0.0,WeatherDisplay:10.37,2013-02-02 04:02:00,
2013-02-01 22:07:00,-0.5,-7.1,30.23,SW,223,0.0,0.0,73,0.00,OVC,,0.00,0.0,WeatherDisplay:10.37,2013-02-02 04:07:00,
2013-02-01 22:12:00,-0.5,-6.8,30.23,SW,223,0.0,0.0,74,0.00,OVC,,0.00,0.0,WeatherDisplay:10.37,2013-02-02 04:12:00,
2013-02-01 22:17:00,-0.5,-6.8,30.23,SW,223,0.0,0.0,74,0.00,-SN,,0.00,0.0,WeatherDisplay:10.37,2013-02-02 04:17:00,
2013-02-01 22:22:00,-0.4,-6.4,30.23,SW,223,0.0,0.0,75,0.00,-SN,,0.00,0.0,WeatherDisplay:10.37,2013-02-02 04:22:00,
2013-02-01 22:27:00,-0.3,-6.3,30.23,SW,223,0.0,0.0,75,0.00,-SN,,0.00,0.0,WeatherDisplay:10.37,2013-02-02 04:27:00,
2013-02-01 22:32:00,-0.3,-6.6,30.23,SW,223,0.0,0.0,74,0.00,-SN,,0.00,0.0,WeatherDisplay:10.37,2013-02-02 04:32:00,
2013-02-01 22:37:00,-0.2,-6.2,30.23,SW,223,0.0,0.0,75,0.00,-SN,,0.00,0.0,WeatherDisplay:10.37,2013-02-02 04:37:00,
2013-02-01 22:42:00,-0.2,-6.2,30.23,SW,223,0.0,0.0,75,0.00,-SN,,0.00,0.0,WeatherDisplay:10.37,2013-02-02 04:42:00,
2013-02-01 22:47:00,0.0,-6.0,30.23,SW,223,0.0,0.0,75,0.00,-SN,,0.00,0.0,WeatherDisplay:10.37,2013-02-02 04:47:00,
2013-02-01 22:52:00,0.1,-5.9,30.23,SW,223,0.0,0.0,75,0.00,-SN,,0.00,0.0,WeatherDisplay:10.37,2013-02-02 04:52:00,
2013-02-01 22:57:00,0.1,-5.9,30.23,SW,223,0.0,0.0,75,0.00,-SN,,0.00,0.0,WeatherDisplay:10.37,2013-02-02 04:57:00,
2013-02-01 23:01:00,0.2,-6.1,30.23,SW,223,0.0,0.0,74,0.00,-SN,,0.00,0.0,WeatherDisplay:10.37,2013-02-02 05:01:00,
2013-02-01 23:06:00,0.2,-6.1,30.23,SW,223,0.0,0.0,74,0.00,-SN,,0.00,0.0,WeatherDisplay:10.37,2013-02-02 05:06:00,
2013-02-01 23:11:00,0.3,-6.0,30.22,SW,223,0.0,0.0,74,0.00,-SN,,0.00,0.0,WeatherDisplay:10.37,2013-02-02 05:11:00,
2013-02-01 23:16:00,0.4,-5.7,30.22,SW,223,0.0,0.0,75,0.00,-SN,,0.00,0.0,WeatherDisplay:10.37,2013-02-02 05:16:00,
2013-02-01 23:21:00,0.4,-5.9,30.22,SW,223,0.0,0.0,74,0.00,-SN,,0.00,0.0,WeatherDisplay:10.37,2013-02-02 05:21:00,
2013-02-01 23:26:00,0.5,-5.8,30.22,SW,223,0.0,0.0,74,0.00,-SN,,0.00,0.0,WeatherDisplay:10.37,2013-02-02 05:26:00,
2013-02-01 23:31:00,0.4,-5.9,30.22,SW,223,0.0,0.0,74,0.00,-SN,,0.00,0.0,WeatherDisplay:10.37,2013-02-02 05:31:00,
2013-02-01 23:36:00,0.2,-5.9,30.22,SW,223,0.0,0.0,75,0.00,-SN,,0.00,0.0,WeatherDisplay:10.37,2013-02-02 05:36:00,
2013-02-01 23:41:00,0.1,-5.9,30.22,SW,223,0.0,0.0,75,0.00,-SN,,0.00,0.0,WeatherDisplay:10.37,2013-02-02 05:41:00,
2013-02-01 23:46:00,0.2,-5.9,30.22,SW,223,0.0,0.0,75,0.00,-SN,,0.00,0.0,WeatherDisplay:10.37,2013-02-02 05:46:00,
2013-02-01 23:51:00,0.1,-5.9,30.22,SW,223,0.0,0.0,75,0.00,-SN,,0.00,0.0,WeatherDisplay:10.37,2013-02-02 05:51:00,
2013-02-01 23:56:00,0.1,-5.7,30.22,SW,223,0.0,0.0,76,0.00,-SN,,0.00,0.0,WeatherDisplay:10.37,2013-02-02 05:56:00,